Location: Celina Division
(33.3022°N, 96.7580°W)
Time: 11:34:20
(UTC+00:00)

Cosmos 1328 Rocket - Pass Details

Date: 08 December 2021
Orbit: 600 x 627 km, 82.5° (Epoch: 22 January)

Event Time Altitude Azimuth Distance (km) Brightness Sun altitude
Rises 23:49:01 0° 176° (S) 2,896 7.3 -6.4°
Reaches altitude 10° 23:51:16 10° 173° (S) 1,994 6.4 -6.8°
Maximum altitude 23:55:37 60° 94° (E) 720 3.6 -7.7°
Drops below altitude 10° 00:00:00 10° 15° (NNE) 2,005 5.8 -8.5°
Sets 00:02:15 0° 11° (NNE) 2,913 6.7 -9.0°
